Location: ?????????
(55.6553°N, 38.9075°E)
Time: 09:06:15
(UTC+00:00)

MSX - Pass Details

Date: 18 October 2019
Orbit: 894 x 906 km, 98.7° (Epoch: 20 November)

Event Time Altitude Azimuth Distance (km) Brightness Sun altitude
Rises 01:30:16 0° 17° (NNE) 3,527 7.4 -21.7°
Reaches altitude 10° 01:32:43 10° 20° (NNE) 2,581 6.7 -21.4°
Maximum altitude 01:38:27 66° 103° (ESE) 976 4.2 -20.6°
Drops below altitude 10° 01:44:08 10° 186° (S) 2,564 6.0 -19.8°
Sets 01:46:33 0° 189° (S) 3,500 6.7 -19.5°
